Home   Weather   Carrollton   Past weeks

Flag for USA Past Weather in Carrollton, Texas, USA — Yesterday and Last 2 Weeks

Now
60 °F

Passing clouds.


Feels Like: 60 °F
Forecast: 53 / 80 °F
Wind: 3 mph from Southeast

Location: Dallas Love Field

Current Time: Oct 17, 2017 at 11:38:16 pm

Latest Report: Oct 17, 2017 at 10:53 pm


Visibility: 10 mi

Pressure: 30.15 "Hg

Humidity: 53%

Dew Point: 43 °F

Location of CarrolltonLocation

Past Weather in Carrollton — Graph

°F

Carrollton Temperature Yesterday

Maximum temperature yesterday: 74 °F (at 3:53 pm)
Minimum temperature yesterday: 50 °F (at 6:53 am)
Average temperature yesterday: 61 °F

High & Low Weather Summary for the Past Weeks

 TemperatureHumidityPressure
High94 °F (Oct 9, 3:53 pm)94% (Oct 3, 5:53 am)30.41 "Hg (Oct 3, 5:53 am)
Low50 °F (Oct 16, 6:53 am)16% (Oct 8, 2:53 pm)29.60 "Hg (Oct 8, 5:53 pm)
Average74 °F60%30.04 "Hg
* Reported Oct 2 9:53 pm — Oct 17 9:53 pm, Carrollton. Weather by CustomWeather, © 2017

Note: Actual official high and low records may vary slightly from our data, if they occured in-between our weather recording intervals... More about our weather records

Advertising

Carrollton Weather History for the Previous 24 Hours

Scroll right to see more
 ConditionsComfort  
Time TempWeatherWind HumidityBarometerVisibility
9:53 pm
Tue, Oct 17
63 °FClear.3 mph47%30.14 "Hg10 mi
8:53 pm66 °FPassing clouds.6 mph40%30.14 "Hg10 mi
7:53 pm68 °FPassing clouds.6 mph36%30.13 "Hg10 mi
6:53 pm71 °FPassing clouds.7 mph32%30.13 "Hg10 mi
5:53 pm75 °FSunny.8 mph28%30.13 "Hg10 mi
4:53 pm75 °FSunny.5 mph26%30.15 "Hg10 mi
3:53 pm76 °FSunny.6 mph26%30.16 "Hg10 mi
2:53 pm74 °FSunny.No wind28%30.19 "Hg10 mi
1:53 pm72 °FSunny.8 mph30%30.22 "Hg10 mi
12:53 pm69 °FSunny.9 mph36%30.26 "Hg10 mi
11:53 am67 °FSunny.8 mph39%30.30 "Hg10 mi
10:53 am65 °FSunny.14 mph42%30.31 "Hg10 mi
9:53 am62 °FSunny.12 mph46%30.32 "Hg10 mi
8:53 am57 °FSunny.7 mph60%30.31 "Hg10 mi
7:53 am54 °FSunny.9 mph62%30.29 "Hg10 mi
6:53 am54 °FClear.7 mph64%30.28 "Hg10 mi
5:53 am50 °FClear.5 mph80%30.27 "Hg10 mi
4:53 am50 °FClear.No wind83%30.26 "Hg10 mi
3:53 am51 °FClear.No wind80%30.27 "Hg10 mi
2:53 am52 °FClear.3 mph77%30.27 "Hg10 mi
1:53 am54 °FClear.No wind72%30.27 "Hg10 mi
12:53 am55 °FClear.No wind69%30.27 "Hg10 mi
11:53 pm
Mon, Oct 16
55 °FClear.No wind69%30.27 "Hg10 mi
Weather by CustomWeather, © 2017

See weather overview